M0HZQ-1 Weather Reports


time (UTC)temp
F
wind
direction
speed
knots
gust
knots
rain 1hr
in
rain 24hr
in
rain mn
in
humidity
%
barometer
mb
20260506093924 56 0 0.0 0.0 0.00 0.00 0.00 46 1013.8
20260506092214 56 0 0.0 0.0 0.00 0.00 0.00 47 1013.8
20260506090509 57 0 0.0 0.0 0.00 0.00 0.00 48 1013.6
20260506084544 55 0 0.0 0.0 0.00 0.00 0.00 49 1013.6
20260506082609 55 0 0.0 0.0 0.00 0.00 0.00 51 1013.3
20260506080859 53 0 0.0 0.0 0.00 0.00 0.00 54 1013.5
20260506073337 54 0 0.0 0.0 0.00 0.00 0.00 54 1013.5
20260506071724 53 0 0.0 0.0 0.00 0.00 0.00 56 1013.4
20260506062354 51 0 0.0 0.0 0.00 0.00 0.00 58 1013.3
20260506060634 51 0 0.0 0.0 0.00 0.00 0.00 58 1013.5
20260506043944 51 0 0.0 0.0 0.00 0.00 0.00 60 1013.1
20260506042109 50 0 0.0 0.0 0.00 0.00 0.00 60 1013.0
20260506040224 51 0 0.0 0.0 0.00 0.00 0.00 60 1013.1
20260506034344 52 0 0.0 0.0 0.00 0.00 0.00 59 1013.0
20260506032714 51 0 0.0 0.0 0.00 0.00 0.00 59 1013.1
20260506030904 52 0 0.0 0.0 0.00 0.00 0.00 58 1013.0
20260506024957 52 0 0.0 0.0 0.00 0.00 0.00 59 1013.1
20260506023244 52 0 0.0 0.0 0.00 0.00 0.00 59 1013.3
20260506021534 52 0 0.0 0.0 0.00 0.00 0.00 60 1013.2
20260506015844 53 0 0.0 0.0 0.00 0.00 0.00 60 1013.3
20260506014004 53 0 0.0 0.0 0.00 0.00 0.00 60 1013.4
20260506012307 53 0 0.0 0.0 0.00 0.00 0.00 59 1013.3
20260506010329 54 0 0.0 0.0 0.00 0.00 0.00 59 1013.5
20260506004624 53 0 0.0 0.0 0.00 0.00 0.00 59 1013.4
20260506002827 53 0 0.0 0.0 0.00 0.00 0.00 59 1013.6
20260506001137 53 0 0.0 0.0 0.00 0.00 0.00 58 1013.8
20260505235509 54 0 0.0 0.0 0.00 0.00 0.00 58 1013.7
20260505233829 54 0 0.0 0.0 0.00 0.00 0.00 58 1013.4
20260505232149 53 0 0.0 0.0 0.00 0.00 0.00 58 1013.5
20260505230314 54 0 0.0 0.0 0.00 0.00 0.00 57 1013.8
20260505224329 54 0 0.0 0.0 0.00 0.00 0.00 57 1013.5
20260505222614 55 0 0.0 0.0 0.00 0.00 0.00 59 1013.6
20260505220849 56 0 0.0 0.0 0.00 0.00 0.00 59 1013.6
20260505215049 55 0 0.0 0.0 0.00 0.00 0.00 58 1013.6
20260505213434 55 0 0.0 0.0 0.00 0.00 0.00 58 1013.5
20260505211624 55 0 0.0 0.0 0.00 0.00 0.00 57 1013.4
20260505210004 57 0 0.0 0.0 0.00 0.00 0.00 52 1013.2
20260505204257 60 0 0.0 0.0 0.00 0.00 0.00 49 1013.2
20260505202414 60 0 0.0 0.0 0.00 0.00 0.00 49 1013.1
20260505200657 60 0 0.0 0.0 0.00 0.00 0.00 49 1012.9
20260505195014 59 0 0.0 0.0 0.00 0.00 0.00 48 1012.8
20260505193357 60 0 0.0 0.0 0.00 0.00 0.00 47 1012.5
20260505191604 60 0 0.0 0.0 0.00 0.00 0.00 46 1012.3
20260505185957 62 0 0.0 0.0 0.00 0.00 0.00 44 1012.1
20260505184229 63 0 0.0 0.0 0.00 0.00 0.00 43 1012.0
20260505182249 63 0 0.0 0.0 0.00 0.00 0.00 42 1011.9
20260505180337 64 0 0.0 0.0 0.00 0.00 0.00 41 1012.0
20260505174717 64 0 0.0 0.0 0.00 0.00 0.00 41 1012.0
20260505172857 65 0 0.0 0.0 0.00 0.00 0.00 40 1012.0
20260505170917 66 0 0.0 0.0 0.00 0.00 0.00 39 1012.0
20260505165137 65 0 0.0 0.0 0.00 0.00 0.00 40 1012.1
20260505163524 65 0 0.0 0.0 0.00 0.00 0.00 39 1012.0
20260505161914 65 0 0.0 0.0 0.00 0.00 0.00 39 1012.0
20260505152224 66 0 0.0 0.0 0.00 0.00 0.00 38 1012.1
20260505150417 65 0 0.0 0.0 0.00 0.00 0.00 38 1012.1
20260505124329 64 0 0.0 0.0 0.00 0.00 0.00 41 1012.9
20260505122634 66 0 0.0 0.0 0.00 0.00 0.00 40 1012.9
20260505120809 66 0 0.0 0.0 0.00 0.00 0.00 41 1012.8
20260505115114 64 0 0.0 0.0 0.00 0.00 0.00 43 1012.9
20260505113517 66 0 0.0 0.0 0.00 0.00 0.00 43 1013.0
20260505111609 64 0 0.0 0.0 0.00 0.00 0.00 44 1013.0
20260505100429 62 0 0.0 0.0 0.00 0.00 0.00 49 1013.4